Regional Weather Roundup
Issued by NWS

Home | Current Version | Previous Version | Graphics & Text | Print | Product List | Glossary Off
Versions: 1 2 3 4 5 6 7 8 9 10 11 12 13 14 15 16 17 18 19 20 21 22 23 24 25 26 27 28 29 30 31 32 33 34 35 36 37 38 39 40 41 42 43 44 45 46 47 48 49 50

000
ASUS43 KTOP 272359
RWRKS

WEATHER ROUNDUP FOR KANSAS
NATIONAL WEATHER SERVICE GOODLAND KS
700 PM CDT MON APR 27 2015

NOTE:  "FAIR" INDICATES FEW OR NO CLOUDS BELOW 12,000 FEET WITH NO
SIGNIFICANT WEATHER AND/OR OBSTRUCTIONS TO VISIBILITY.

KSZ001>006-013>018-027>032-041>047-280100-
NORTHWEST KANSAS

CITY           SKY/WX    TMP DP  RH WIND       PRES   REMARKS
GOODLAND       MOSUNNY   59  32  36 NE17G25   30.18S
6HR MIN TEMP:  52; 6HR MAX TEMP:  60;

HAYS           SUNNY     61  30  31 NE20G25   30.12R
HILL CITY      MOSUNNY   62  34  35 NE18      30.14S
6HR MIN TEMP:  58; 6HR MAX TEMP:  63;

RUSSELL        SUNNY     61  33  35 NE18G26   30.10R
6HR MIN TEMP:  57; 6HR MAX TEMP:  64;

$$

KSZ061>065-074>080-084>089-280100-
SOUTHWEST KANSAS

CITY           SKY/WX    TMP DP  RH WIND       PRES   REMARKS
DODGE CITY     CLOUDY    56  34  43 NE17G26   30.10R
6HR MIN TEMP:  51; 6HR MAX TEMP:  57;

ELKHART          N/A     48  37  65 N8          N/A
GARDEN CITY    CLOUDY    56  28  34 NE17G26   30.11R
6HR MIN TEMP:  50; 6HR MAX TEMP:  56;

GREAT BEND     MOSUNNY   61  36  39 NE20      30.10R
LIBERAL        CLOUDY    46  37  71 E9        30.12S
$$

KSZ066>073-081>083-090>101-280100-
SOUTHEAST KANSAS

CITY           SKY/WX    TMP DP  RH WIND       PRES   REMARKS
CHANUTE        CLOUDY    62  37  39 E13       30.01R
6HR MIN TEMP:  59; 6HR MAX TEMP:  66;

COFFEYVILLE    CLOUDY    62  38  40 NE10      30.01R
6HR MIN TEMP:  62; 6HR MAX TEMP:  65;

HUTCHINSON     PTSUNNY   63  36  36 NE15G22   30.06R
6HR MIN TEMP:  58; 6HR MAX TEMP:  65;

MEDICINE LODGE   N/A     57  39  51 NE9       30.05S
NEWTON         PTSUNNY   61  36  39 NE12G21   30.08R
PARSONS        CLOUDY    62  40  44 VRB7      30.02R
6HR MIN TEMP:  62; 6HR MAX TEMP:  66;

WICHITA INTL   CLOUDY    62  33  33 NE17G24   30.05R
6HR MIN TEMP:  58; 6HR MAX TEMP:  65; 6HR PCP: TRACE;

WICHITA JABRA  CLOUDY    60  35  39 NE17G23   30.05R
6HR MIN TEMP:  57; 6HR MAX TEMP:  64; 6HR PCP: TRACE;

WINFIELD       CLOUDY    60  36  40 NE12      30.04R
6HR MIN TEMP:  59; 6HR MAX TEMP:  62;

$$

KSZ007>012-019>026-033>040-048>060-102>105-280100-
NORTHEAST KANSAS

CITY           SKY/WX    TMP DP  RH WIND       PRES   REMARKS
CONCORDIA      MOSUNNY   63  32  31 NE16      30.10R
6HR MIN TEMP:  59; 6HR MAX TEMP:  64;

EMPORIA        MOSUNNY   63  37  38 NE14      30.04R
6HR MIN TEMP:  58; 6HR MAX TEMP:  65;

LAWRENCE       MOSUNNY   64  34  32 NE13G23   30.06S
6HR MIN TEMP:  61; 6HR MAX TEMP:  67;

MANHATTAN      MOSUNNY   64  35  34 NE16      30.07R
6HR MIN TEMP:  61; 6HR MAX TEMP:  66;

OLATHE IND     MOSUNNY   64  35  34 NE13      30.05S
6HR MIN TEMP:  61; 6HR MAX TEMP:  67;

OLATHE EXE     MOSUNNY   64  36  35 E13       30.04S
6HR MIN TEMP:  60; 6HR MAX TEMP:  67;

SALINA         MOSUNNY   65  33  30 NE14G24   30.09R
6HR MIN TEMP:  61; 6HR MAX TEMP:  67;

TOPEKA BILLARD MOSUNNY   65  34  31 E15       30.06S
6HR MIN TEMP:  59; 6HR MAX TEMP:  67;

TOPEKA FORBES  MOSUNNY   65  34  31 NE12      30.05S
6HR MIN TEMP:  61; 6HR MAX TEMP:  67;

$$


USA.gov is the U.S. government's official web portal to all federal, state and local government web resources and services.